Location: Legnica
(51.2167°N, 16.1667°E)
Time: 09:38:49
(UTC+01:00)

ISS - Visible Passes

Search period start: 14 December 2018 00:00
Search period end: 24 December 2018 00:00
Orbit: 401 x 408 km, 51.6° (Epoch: 15 December)

Date Brightness Start Highest point End Pass type
(mag) Time Alt. Az. Time Alt. Az. Time Alt. Az.
14 Dec -0.4 17:16:02 10° WSW 17:17:14 12° SW 17:18:26 10° SSW visible
15 Dec -0.7 16:23:00 10° W 16:25:20 18° SW 16:27:39 10° S visible
22 Dec -0.4 07:06:15 10° S 07:07:55 13° SE 07:09:36 10° ESE visible
